Home   Weather   Columbus   Past weeks
Flag for USA

Past Weather in Columbus, Missouri, USA — Yesterday and Last 2 Weeks

Now
31 °F

Mostly cloudy.


Feels Like: 24 °F
Forecast: 38 / 30 °F
Wind: 7 mph from Northeast

Location: Kansas City Downtown Airport
Current Time: Oct 27, 2020 at 5:12:54 am
Latest Report: Oct 27, 2020 at 3:54 am
Visibility: 10 mi
Pressure30.39 "Hg
Humidity: 69%
Dew Point: 22 °F
Location of ColumbusLocation

Past Weather in Columbus — Graph

°F

Columbus Temperature Yesterday

Maximum temperature yesterday: 36 °F (at 12:09 am)
Minimum temperature yesterday: 29 °F (at 7:54 am)
Average temperature yesterday: 31 °F

High & Low Weather Summary for the Past Weeks

 TemperatureHumidityPressure
High84 °F (Oct 22, 2:54 pm)97% (Oct 21, 10:54 pm)30.42 "Hg (Oct 21, 10:54 pm)
Low29 °F (Oct 26, 7:54 am)17% (Oct 15, 2:54 pm)29.61 "Hg (Oct 14, 2:54 pm)
Average49 °F63%30.11 "Hg
* Reported Oct 12 3:54 am — Oct 27 3:54 am, Columbus. Weather by CustomWeather, © 2020

Note: Actual official high and low records may vary slightly from our data, if they occured in-between our weather recording intervals... More about our weather records

Columbus Weather History for the Previous 24 Hours

Scroll right to see more
 ConditionsComfort  
Time TempWeatherWind HumidityBarometerVisibility
3:54 am
Tue, Oct 27
31 °FMostly cloudy.7 mph69%30.39 "Hg10 mi
2:54 am31 °FOvercast.5 mph73%30.40 "Hg10 mi
1:54 am31 °FOvercast.7 mph73%30.41 "Hg10 mi
12:54 am31 °FOvercast.9 mph73%30.41 "Hg10 mi
11:54 pm
Mon, Oct 26
31 °FOvercast.5 mph79%30.41 "Hg10 mi
10:54 pm31 °FOvercast.5 mph79%30.42 "Hg10 mi
9:54 pm31 °FMostly cloudy.5 mph82%30.41 "Hg9 mi
9:29 pm31 °FOvercast.6 mph82%30.39 "Hg10 mi
9:07 pm31 °FMostly cloudy.7 mph82%30.38 "Hg10 mi
7:54 pm31 °FLight snow. Mostly cloudy.7 mph82%30.38 "Hg6 mi
6:54 pm31 °FMostly cloudy.6 mph79%30.36 "Hg10 mi
5:54 pm31 °FMore clouds than sun.8 mph79%30.38 "Hg10 mi
4:54 pm30 °FLight snow. Mostly cloudy.8 mph82%30.38 "Hg6 mi
4:02 pm30 °FCloudy.8 mph82%30.36 "Hg8 mi
3:10 pm31 °FLight snow. Mostly cloudy.9 mph79%30.34 "Hg8 mi
2:54 pm30 °FLight snow. Ice fog.8 mph85%30.36 "Hg6 mi
1:54 pm29 °FLight snow. Ice fog.7 mph89%30.39 "Hg1 mi
1:13 pm29 °FLight snow. Ice fog.12 mph85%30.39 "Hg2 mi
1:03 pm29 °FLight snow. Ice fog.8 mph85%30.39 "Hg3 mi
12:28 pm29 °FLight snow. Ice fog.10 mph89%30.39 "Hg1 mi
11:54 am29 °FLight snow. Ice fog.8 mph89%30.42 "Hg1 mi
11:40 am29 °FLight snow. Ice fog.12 mph85%30.41 "Hg1 mi
10:54 am30 °FLight snow. Mostly cloudy.9 mph82%30.42 "Hg8 mi
10:30 am30 °FLight snow. Mostly cloudy.14 mph82%30.38 "Hg3 mi
10:22 am30 °FLight snow. Mostly cloudy.13 mph82%30.37 "Hg2 mi
10:14 am29 °FLight snow. Ice fog.14 mph85%30.37 "Hg2 mi
9:54 am29 °FLight snow. Ice fog.12 mph85%30.39 "Hg5 mi
9:35 am29 °FLight snow. Ice fog.10 mph85%30.37 "Hg2 mi
9:10 am29 °FLight snow. Mostly cloudy.14 mph82%30.35 "Hg2 mi
8:13 am29 °FMostly cloudy.14 mph85%30.34 "Hg10 mi
7:54 am29 °FLight snow. Mostly cloudy.9 mph85%30.37 "Hg8 mi
7:20 am30 °FLight snow. Ice fog.10 mph85%30.35 "Hg1 mi
6:54 am30 °FLight snow. Ice fog.13 mph89%30.36 "Hg2 mi
6:30 am31 °FLight snow. Ice fog.10 mph85%30.34 "Hg2 mi
6:02 am31 °FLight snow. Ice fog.10 mph85%30.31 "Hg2 mi
Weather by CustomWeather, © 2020

See weather overview